LGKRLGPZ

Guest
Details From LGKR - IOANNIS KAPODISTRIAS INTL
To LGPZ - AKTIO
Flight Number -
Tags generated
Created
Modified
Stats Distance 57 nm / 105 km
Max Altitude 4,300 ft / 1,311 m
Waypoints 3
Social Downloads 0
Likes 0
Share VATSIM

Download

Looking for another format? Having issues loading an existing format? Contact us
Advertisement - Login to hide

Notes

Basic altitude profile: - Ascent Rate: 2500ft/min - Ascent Speed: 250kts - Cruise Altitude: 90ft - Cruise Speed: 420kts - Descent Rate: 1500ft/min - Descent Speed: 250kts Options: - Use NATs: yes - Use PACOTS: yes - Use low airways: yes - Use high airways: yes

Route

LGKR KRK LGPZ

ID Type Via Altitude Latitude Longitude Leg Dist Tot Dist Heading (true) Name
O LGKR APT - 0 ft / 0 m 39.60178˚ 19.91191˚ - 0 nm - IOANNIS KAPODISTRIAS INTL
KRK VOR - 4,300 ft / 1,311 m 39.44389˚ 20.07278˚ 12 nm 12 nm 142° / 142° KERKIRA VOR-DME
O LGPZ APT - 0 ft / 0 m 38.92547˚ 20.76531˚ 44 nm 56 nm 134° / 134° AKTIO

Altitude Profile

Advertisement - Login to hide

LGKR

Details ICAO LGKR (CFU)
Name IOANNIS KAPODISTRIAS INTL
Region Greece
Timezone Europe/Athens (UTC+2.0)
Stats Elevation 6 ft / 2 m (AMSL)
Location 39.601779° 19.911908°
Runways 1
Magnetic Variation 4.098° E

METAR

LGKR 160650Z 16013KT 9999 SCT013 BKN020 17/14 Q1009 NOSIG

Decode

TAF

TAF LGKR 160500Z 1606/1706 16018KT 9999 SCT010 BKN025 PROB40 TEMPO 1606/1703 5000 RA BKN020 BKN080 PROB30 TEMPO 1609/1624 4000 TSRA FEW018CB BKN020 BKN080 BECMG 1610/1612 22010KT BECMG 1616/1618 16008KT BECMG 1622/1624 34008KT

Decode

Departure Runways

ID Width Length Bearing (true) Bearing (mag) Surface Threshold Offset Overrun Length
17 148 ft / 45 m 7,815 ft / 2,382 m 168.81° 164.71° Asphalt 1,348 ft / 411 m 0 ft / 0 m
35 148 ft / 45 m 7,815 ft / 2,382 m 348.81° 344.71° Asphalt 213 ft / 65 m 0 ft / 0 m

LGPZ

Details ICAO LGPZ (PVK)
Name AKTIO
Region Greece
Timezone Europe/Athens (UTC+2.0)
Stats Elevation 11 ft / 3 m (AMSL)
Location 38.925465° 20.765311°
Runways 1
Magnetic Variation 4.160° E

METAR

LGPZ 160650Z 15004KT 9999 SCT020 BKN070 16/13 Q1012 RMK BKN180 BLU

Decode

TAF

TAF TAF LGPZ 160500Z 1606/1706 19010KT 9999 SCT020 BKN080 PROB40 TEMPO 1606/1706 7000 RA FEW012 BKN020 BKN080 PROB40 TEMPO 1610/1616 3000 TSRA FEW016CB BKN020 OVC080 PROB40 TEMPO 1623/1706 3000 TSRA FEW016CB BKN020 OVC080 BECMG 1613/1615 06010KT BECMG 1703/1705 29010KT

Decode

Destination Runways

ID Width Length Bearing (true) Bearing (mag) Surface Threshold Offset Overrun Length
07L 148 ft / 45 m 9,404 ft / 2,866 m 67.79° 63.63° Asphalt 0 ft / 0 m 80 ft / 24 m
25R 148 ft / 45 m 9,404 ft / 2,866 m 247.81° 243.65° Asphalt 492 ft / 150 m 380 ft / 116 m

Popular Alternatives